Location: Burbank
(38.7788°N, 114.0429°W)
Time: 00:33:17
(UTC+00:00)

Explorer 11/Cluster Stage 4 - All Passes

Search period start: 12 May 2026 00:00
Search period end: 22 May 2026 00:00
Orbit: 463 x 1174 km, 28.8° (Epoch: 11 May)

Date Brightness Start Highest point End Pass type
(mag) Time Alt. Az. Time Alt. Az. Time Alt. Az.
12 May - 05:50:28 10° S 05:53:29 14° SSE 05:56:16 10° SE night (unlit)
12 May - 07:36:04 10° SW 07:40:34 23° S 07:44:25 10° ESE night (unlit)
12 May - 09:23:31 10° WSW 09:27:29 23° S 09:30:56 10° SE night (unlit)
12 May - 11:12:14 10° SW 11:14:04 13° SSW 11:15:49 10° S visible
13 May - 05:25:06 10° SSW 05:28:43 15° SSE 05:32:00 10° SE night (unlit)
13 May - 07:10:57 10° SW 07:15:51 25° S 07:20:03 10° ESE night (unlit)
13 May - 08:58:30 10° WSW 09:02:51 25° S 09:06:34 10° SE night (unlit)
13 May - 10:47:15 10° SW 10:49:28 13° SSW 10:51:33 10° S visible
14 May - 04:59:48 10° SSW 05:03:53 16° SSE 05:07:39 10° SE visible
14 May - 06:45:49 10° SW 06:51:07 27° S 06:55:38 10° ESE night (unlit)
14 May - 08:33:27 10° WSW 08:38:11 27° S 08:42:11 10° SE night (unlit)
14 May - 10:22:14 10° SW 10:24:51 15° SSW 10:27:15 10° SSE visible
15 May - 04:34:33 10° SSW 04:39:03 18° SSE 04:43:12 10° ESE visible
15 May - 06:20:40 10° SW 06:26:19 28° S 06:31:11 10° ESE visible
15 May - 08:08:22 10° WSW 08:13:29 28° S 08:17:47 10° SE night (unlit)
15 May - 09:57:10 10° WSW 10:00:12 16° SSW 10:02:56 10° SSE night (unlit)
16 May - 04:09:19 10° SSW 04:14:10 19° SSE 04:18:41 10° ESE visible
16 May - 05:55:31 10° SW 06:01:29 30° S 06:06:41 10° ESE visible
16 May - 07:43:16 10° WSW 07:48:44 30° S 07:53:21 10° SE night (unlit)
16 May - 09:32:04 10° WSW 09:35:31 17° SSW 09:38:36 10° SSE night (unlit)
17 May - 03:44:07 10° SSW 03:49:16 20° SSE 03:54:04 10° ESE visible
17 May - 05:30:22 10° SW 05:36:38 31° S 05:42:08 10° ESE visible
17 May - 07:18:08 10° WSW 07:23:57 32° S 07:28:53 10° SE night (unlit)
17 May - 09:06:57 10° WSW 09:10:49 18° SSW 09:14:15 10° SSE night (unlit)
18 May - 03:19:00 10° SSW 03:24:20 20° SSE 03:29:24 10° ESE visible
18 May - 05:05:13 10° SW 05:11:44 33° S 05:17:32 10° ESE visible
18 May - 06:53:00 10° WSW 06:59:08 33° S 07:04:22 10° SE visible
18 May - 08:41:48 10° WSW 08:46:05 19° SSW 08:49:51 10° SSE night (unlit)
19 May - 02:53:54 10° SSW 02:59:23 21° SSE 03:04:40 10° ESE daylight
19 May - 04:40:07 10° SW 04:46:48 34° S 04:52:53 10° ESE visible
19 May - 06:27:52 10° WSW 06:34:16 34° S 06:39:49 10° SE visible
19 May - 08:16:39 10° WSW 08:21:18 21° SSW 08:25:24 10° SSE night (unlit)
20 May - 02:28:51 10° SSW 02:34:25 22° SSE 02:39:51 10° ESE daylight
20 May - 04:15:01 10° SW 04:21:51 35° S 04:28:09 10° ESE visible
20 May - 06:02:44 10° WSW 06:09:23 35° S 06:15:13 10° ESE visible
20 May - 07:51:30 10° WSW 07:56:30 22° SSW 08:00:55 10° SSE night (unlit)
21 May - 02:03:51 10° SSW 02:09:25 22° SSE 02:14:59 10° ESE daylight
21 May - 03:49:58 10° SW 03:56:52 35° S 04:03:23 10° ESE visible
21 May - 05:37:37 10° WSW 05:44:27 36° S 05:50:33 10° ESE visible
21 May - 07:26:20 10° WSW 07:31:39 23° SSW 07:36:22 10° SSE visible
